KLM88T EGSS-EGKK

Flight info

Callsign KLM88T
Flight time 0h 29m
Altitude 6000
Route DET DCT TIMBA
Aircraft A20N/M-SDE2E3FGHIRWXY/LB1

Departure

Time 2026-05-05 11:25
Airport London Stansted Airport (EGSS)

Arrival

Time 2026-05-05 11:54
Airport London Gatwick Airport (EGKK)
Time Latitude Longitude Altitude Speed Heading
2026-05-05 10:54 51.88926 0.25298 334 ft 0 kts 43°
2026-05-05 11:12 51.88919 0.25287 334 ft 2 kts 42°
2026-05-05 11:13 51.88910 0.25275 334 ft 0 kts 42°
2026-05-05 11:13 51.88900 0.25261 333 ft 2 kts 29°
2026-05-05 11:13 51.88887 0.25251 333 ft 2 kts 17°
2026-05-05 11:13 51.88872 0.25246 332 ft 2 kts
2026-05-05 11:14 51.88857 0.25247 332 ft 2 kts 348°
2026-05-05 11:14 51.88843 0.25254 332 ft 2 kts 335°
2026-05-05 11:14 51.88830 0.25266 332 ft 2 kts 321°
2026-05-05 11:14 51.88823 0.25276 332 ft 0 kts 313°
2026-05-05 11:15 51.88818 0.25284 332 ft 0 kts 311°
2026-05-05 11:17 51.88819 0.25283 332 ft 0 kts 311°
2026-05-05 11:17 51.88827 0.25268 332 ft 3 kts 312°
2026-05-05 11:18 51.88847 0.25233 332 ft 5 kts 313°
2026-05-05 11:18 51.88878 0.25182 331 ft 7 kts 314°
2026-05-05 11:18 51.88915 0.25117 332 ft 8 kts 313°
2026-05-05 11:18 51.88956 0.25050 332 ft 8 kts 308°
2026-05-05 11:19 51.88967 0.24964 333 ft 8 kts 246°
2026-05-05 11:19 51.88924 0.24891 332 ft 10 kts 223°
2026-05-05 11:19 51.88886 0.24831 331 ft 11 kts 222°
2026-05-05 11:20 51.88810 0.24725 330 ft 17 kts 220°
2026-05-05 11:20 51.88708 0.24567 329 ft 22 kts 223°
2026-05-05 11:20 51.88595 0.24397 329 ft 22 kts 223°
2026-05-05 11:20 51.88485 0.24234 330 ft 21 kts 222°
2026-05-05 11:21 51.88378 0.24072 332 ft 20 kts 222°
2026-05-05 11:21 51.88281 0.23927 335 ft 18 kts 223°
2026-05-05 11:21 51.88186 0.23785 337 ft 18 kts 223°
2026-05-05 11:21 51.88090 0.23641 340 ft 18 kts 223°
2026-05-05 11:22 51.87991 0.23491 340 ft 20 kts 221°
2026-05-05 11:22 51.87884 0.23332 340 ft 20 kts 223°
2026-05-05 11:22 51.87778 0.23171 339 ft 20 kts 223°
2026-05-05 11:22 51.87752 0.23001 338 ft 16 kts 310°
2026-05-05 11:23 51.87764 0.22853 339 ft 15 kts 220°
2026-05-05 11:23 51.87679 0.22727 337 ft 17 kts 223°
2026-05-05 11:23 51.87590 0.22593 338 ft 15 kts 222°
2026-05-05 11:23 51.87524 0.22480 337 ft 13 kts 246°
2026-05-05 11:24 51.87561 0.22357 338 ft 12 kts 313°
2026-05-05 11:24 51.87637 0.22262 338 ft 15 kts 341°
2026-05-05 11:24 51.87715 0.22302 340 ft 2 kts 43°
2026-05-05 11:24 51.87856 0.22514 340 ft 66 kts 43°
2026-05-05 11:25 51.88375 0.23291 344 ft 134 kts 42°
2026-05-05 11:25 51.89145 0.24443 640 ft 160 kts 43°
2026-05-05 11:25 51.89949 0.25669 1383 ft 160 kts 41°
2026-05-05 11:25 51.90729 0.26901 2184 ft 158 kts 50°
2026-05-05 11:26 51.91135 0.28458 3010 ft 154 kts 80°
2026-05-05 11:26 51.90990 0.30192 3559 ft 164 kts 108°
2026-05-05 11:26 51.90355 0.31771 4082 ft 177 kts 135°
2026-05-05 11:26 51.89292 0.32762 4684 ft 184 kts 163°
2026-05-05 11:27 51.88018 0.32838 5374 ft 186 kts 190°
2026-05-05 11:27 51.86819 0.32081 5966 ft 194 kts 205°
2026-05-05 11:27 51.85546 0.31037 6324 ft 217 kts 206°
2026-05-05 11:27 51.84127 0.29856 6607 ft 246 kts 206°
2026-05-05 11:28 51.82499 0.28569 6944 ft 272 kts 205°
2026-05-05 11:28 51.80755 0.27240 6983 ft 281 kts 205°
2026-05-05 11:28 51.78981 0.25903 6987 ft 282 kts 204°
2026-05-05 11:28 51.77182 0.24653 6988 ft 282 kts 195°
2026-05-05 11:29 51.75259 0.24601 6983 ft 277 kts 161°
2026-05-05 11:29 51.73537 0.25944 6978 ft 277 kts 149°
2026-05-05 11:29 51.71864 0.27481 6982 ft 278 kts 149°
2026-05-05 11:29 51.70167 0.28967 6987 ft 277 kts 151°
2026-05-05 11:30 51.68459 0.30389 6989 ft 277 kts 152°
2026-05-05 11:30 51.66750 0.31763 6992 ft 277 kts 152°
2026-05-05 11:30 51.65015 0.33126 6981 ft 278 kts 152°
2026-05-05 11:30 51.63267 0.34492 6974 ft 278 kts 152°
2026-05-05 11:31 51.61522 0.35854 6977 ft 278 kts 152°
2026-05-05 11:31 51.59789 0.37206 6979 ft 279 kts 152°
2026-05-05 11:31 51.58059 0.38557 6978 ft 279 kts 152°
2026-05-05 11:31 51.56296 0.39931 6976 ft 279 kts 152°
2026-05-05 11:32 51.54554 0.41289 6978 ft 279 kts 152°
2026-05-05 11:32 51.52833 0.42628 6978 ft 279 kts 152°
2026-05-05 11:32 51.51073 0.43997 7051 ft 283 kts 153°
2026-05-05 11:32 51.49286 0.45383 7582 ft 285 kts 153°
2026-05-05 11:33 51.47525 0.46725 7915 ft 283 kts 153°
2026-05-05 11:33 51.45731 0.48085 7987 ft 283 kts 153°
2026-05-05 11:33 51.43968 0.49420 7990 ft 283 kts 153°
2026-05-05 11:33 51.42181 0.50774 7961 ft 283 kts 153°
2026-05-05 11:34 51.40420 0.52109 7971 ft 283 kts 153°
2026-05-05 11:34 51.38629 0.53464 7985 ft 283 kts 153°
2026-05-05 11:34 51.36869 0.54795 7985 ft 283 kts 153°
2026-05-05 11:34 51.35075 0.56149 7979 ft 283 kts 153°
2026-05-05 11:35 51.33313 0.57481 7970 ft 283 kts 153°
2026-05-05 11:35 51.31511 0.58746 7952 ft 283 kts 162°
2026-05-05 11:35 51.29573 0.58989 7949 ft 284 kts 189°
2026-05-05 11:35 51.27732 0.57807 7976 ft 285 kts 210°
2026-05-05 11:36 51.26040 0.56153 7932 ft 286 kts 211°
2026-05-05 11:36 51.24355 0.54488 7981 ft 286 kts 211°
2026-05-05 11:36 51.22683 0.52852 7949 ft 286 kts 211°
2026-05-05 11:36 51.20988 0.51209 7958 ft 286 kts 211°
2026-05-05 11:37 51.19289 0.49574 7956 ft 286 kts 210°
2026-05-05 11:37 51.17572 0.47930 7945 ft 287 kts 210°
2026-05-05 11:37 51.15870 0.46305 7925 ft 286 kts 210°
2026-05-05 11:37 51.14172 0.44688 7955 ft 286 kts 210°
2026-05-05 11:38 51.12442 0.43044 7954 ft 287 kts 210°
2026-05-05 11:38 51.10739 0.41425 7942 ft 287 kts 210°
2026-05-05 11:38 51.09036 0.39809 7925 ft 287 kts 210°
2026-05-05 11:38 51.07327 0.38189 7960 ft 287 kts 210°
2026-05-05 11:39 51.05618 0.36569 7963 ft 287 kts 210°
2026-05-05 11:39 51.03909 0.34949 7941 ft 287 kts 210°
2026-05-05 11:39 51.02196 0.33330 7968 ft 287 kts 210°
2026-05-05 11:39 51.00468 0.31698 7885 ft 287 kts 210°
2026-05-05 11:40 50.98767 0.30092 7656 ft 283 kts 210°
2026-05-05 11:40 50.97071 0.28474 7549 ft 284 kts 213°
2026-05-05 11:40 50.95643 0.26380 7356 ft 282 kts 237°
2026-05-05 11:40 50.94938 0.23568 7013 ft 278 kts 264°
2026-05-05 11:41 50.94889 0.20500 6585 ft 277 kts 273°
2026-05-05 11:41 50.94996 0.17500 6182 ft 277 kts 276°
2026-05-05 11:41 50.95144 0.14475 5948 ft 273 kts 276°
2026-05-05 11:41 50.95299 0.11442 5963 ft 276 kts 276°
2026-05-05 11:42 50.95454 0.08432 5951 ft 276 kts 276°
2026-05-05 11:42 50.95607 0.05438 5843 ft 272 kts 276°
2026-05-05 11:42 50.95756 0.02494 5613 ft 265 kts 276°
2026-05-05 11:42 50.95900 -0.00368 5442 ft 257 kts 276°
2026-05-05 11:43 50.96035 -0.03162 5277 ft 248 kts 276°
2026-05-05 11:43 50.96158 -0.05837 5115 ft 240 kts 276°
2026-05-05 11:43 50.96272 -0.08448 4861 ft 238 kts 276°
2026-05-05 11:43 50.96384 -0.11108 4390 ft 247 kts 276°
2026-05-05 11:44 50.96500 -0.13834 4047 ft 256 kts 276°
2026-05-05 11:44 50.96611 -0.16654 3993 ft 259 kts 276°
2026-05-05 11:44 50.96724 -0.19516 3992 ft 260 kts 276°
2026-05-05 11:44 50.96838 -0.22376 3992 ft 260 kts 276°
2026-05-05 11:45 50.96952 -0.25199 3987 ft 254 kts 276°
2026-05-05 11:45 50.97059 -0.27924 3983 ft 240 kts 276°
2026-05-05 11:45 50.97164 -0.30617 3991 ft 248 kts 276°
2026-05-05 11:45 50.97268 -0.33310 3937 ft 241 kts 276°
2026-05-05 11:46 50.97362 -0.35915 3790 ft 233 kts 276°
2026-05-05 11:46 50.97450 -0.38426 3635 ft 226 kts 276°
2026-05-05 11:46 50.97533 -0.40878 3483 ft 218 kts 276°
2026-05-05 11:46 50.97606 -0.43239 3344 ft 211 kts 278°
2026-05-05 11:47 50.97978 -0.45316 3274 ft 189 kts 308°
2026-05-05 11:47 50.98945 -0.46582 3055 ft 176 kts 336°
2026-05-05 11:47 51.00056 -0.47391 3005 ft 178 kts 341°
2026-05-05 11:47 51.01201 -0.48149 2998 ft 178 kts 341°
2026-05-05 11:48 51.03486 -0.49662 2995 ft 179 kts 341°
2026-05-05 11:48 51.04636 -0.50415 2997 ft 178 kts 344°
2026-05-05 11:48 51.05833 -0.50590 2993 ft 173 kts 10°
2026-05-05 11:49 51.07009 -0.50206 2998 ft 173 kts 22°
2026-05-05 11:49 51.08031 -0.49214 3002 ft 173 kts 34°
2026-05-05 11:49 51.09046 -0.48169 3000 ft 173 kts 32°
2026-05-05 11:49 51.10059 -0.47138 2998 ft 174 kts 32°
2026-05-05 11:50 51.10931 -0.45843 2983 ft 176 kts 58°
2026-05-05 11:50 51.11364 -0.43999 3005 ft 178 kts 72°
2026-05-05 11:50 51.11664 -0.42083 2872 ft 178 kts 74°
2026-05-05 11:50 51.11925 -0.40188 2627 ft 174 kts 75°
2026-05-05 11:51 51.12171 -0.38344 2392 ft 166 kts 75°
2026-05-05 11:51 51.12401 -0.36623 2169 ft 154 kts 76°
2026-05-05 11:51 51.12626 -0.34961 2002 ft 155 kts 75°
2026-05-05 11:51 51.12852 -0.33306 1800 ft 154 kts 74°
2026-05-05 11:52 51.13077 -0.31658 1587 ft 147 kts 73°
2026-05-05 11:52 51.13283 -0.30133 1373 ft 137 kts 72°
2026-05-05 11:52 51.13485 -0.28664 1197 ft 135 kts 75°
2026-05-05 11:52 51.13687 -0.27214 1019 ft 136 kts 73°
2026-05-05 11:53 51.13892 -0.25744 839 ft 136 kts 73°
2026-05-05 11:53 51.14088 -0.24290 659 ft 135 kts 75°
2026-05-05 11:53 51.14287 -0.22836 500 ft 133 kts 75°
2026-05-05 11:53 51.14489 -0.21407 308 ft 131 kts 77°
2026-05-05 11:54 51.14675 -0.20040 197 ft 119 kts 80°
2026-05-05 11:54 51.14823 -0.18969 195 ft 74 kts 77°
2026-05-05 11:54 51.14913 -0.18317 199 ft 44 kts 78°
2026-05-05 11:54 51.14985 -0.17949 199 ft 26 kts 59°
2026-05-05 11:55 51.15051 -0.17805 198 ft 6 kts 50°
2026-05-05 11:55 51.15065 -0.17781 198 ft 2 kts 49°
2026-05-05 11:55 51.15068 -0.17774 198 ft 0 kts 48°
2026-05-05 11:55 51.15082 -0.17757 198 ft 4 kts 28°
2026-05-05 11:56 51.15114 -0.17754 198 ft 7 kts 352°
2026-05-05 11:56 51.15181 -0.17771 197 ft 8 kts 352°
2026-05-05 11:56 51.15206 -0.17777 197 ft 1 kts 349°
2026-05-05 11:56 51.15236 -0.17780 196 ft 6 kts 21°
2026-05-05 11:57 51.15262 -0.17689 197 ft 11 kts 80°
2026-05-05 11:57 51.15283 -0.17540 195 ft 16 kts 78°
2026-05-05 11:57 51.15309 -0.17385 188 ft 15 kts 53°
2026-05-05 11:57 51.15420 -0.17393 192 ft 16 kts 348°
2026-05-05 11:58 51.15522 -0.17431 198 ft 12 kts 346°
2026-05-05 11:58 51.15596 -0.17458 200 ft 11 kts 348°
2026-05-05 11:58 51.15707 -0.17495 202 ft 19 kts 348°
2026-05-05 11:58 51.15778 -0.17416 205 ft 11 kts 85°
2026-05-05 11:59 51.15789 -0.17300 207 ft 10 kts 78°
2026-05-05 11:59 51.15828 -0.17224 203 ft 10 kts 348°
2026-05-05 11:59 51.15872 -0.17241 197 ft 2 kts 346°
2026-05-05 11:59 51.15877 -0.17243 197 ft 0 kts 346°